Location: Colonia Mina de C?rbuni
(46.1667°N, 22.7167°E)
Time: 21:48:49
(UTC+00:00)

Tiros 1 - Pass Details

Date: 18 April 2024
Orbit: 624 x 657 km, 48.4° (Epoch: 20 May)

Event Time Altitude Azimuth Distance (km) Brightness Sun altitude
Rises 22:03:08 0° 202° (SSW) 2,923 - -32.3°
Reaches altitude 10° 22:05:57 10° 186° (S) 2,012 - -32.4°
Maximum altitude 22:09:19 20° 139° (SE) 1,452 - -32.4°
Drops below altitude 10° 22:12:42 10° 91° (E) 2,006 - -32.5°
Sets 22:15:29 0° 75° (ENE) 2,912 - -32.5°
